Regional Weather Roundup
Issued by NWS

Home | Current Version | Previous Version | Graphics & Text | Print | Product List | Glossary On
Versions: 1 2 3 4 5 6 7 8 9 10 11 12 13 14 15 16 17 18 19 20 21 22 23 24 25 26 27 28 29 30 31 32 33 34 35 36 37 38 39 40 41 42 43 44 45 46 47 48 49 50
000
ASUS43 KOAX 220210
RWRNE

WEATHER ROUNDUP FOR NEBRASKA
NATIONAL WEATHER SERVICE OMAHA NE
900 PM CDT SAT OCT 21 2017

NOTES: SATELLITE DATA IS BEING USED TO AUGMENT CLOUD COVER ABOVE
       12000 FEET.
       "FAIR" INDICATES FEW OR NO CLOUDS BELOW 12,000 FEET WITH NO
       SIGNIFICANT WEATHER AND/OR OBSTRUCTIONS TO VISIBILITY.


NEZ001>004-019>022-054>056-220300-
NEBRASKA PANHANDLE

CITY           SKY/WX    TMP DP  RH WIND       PRES   REMARKS
SCOTTSBLUFF    CLEAR     47  17  30 W12       30.06R
ALLIANCE       CLEAR     35  20  54 W8        30.04R HAZE    WCI  29
CHADRON        CLEAR     36  14  40 W8        30.00R WCI  30
GORDON         FAIR      36  22  55 W5        30.00R WCI  32
KIMBALL        CLEAR     36  15  41 W9        30.10S WCI  29
SIDNEY         CLEAR     40  15  36 W9        30.09R WCI  34
$$

NEZ057>060-069>072-079>082-220300-
SOUTHWEST NEBRASKA

CITY           SKY/WX    TMP DP  RH WIND       PRES   REMARKS
NORTH PLATTE   CLEAR     41  28  60 NW6       30.02R
IMPERIAL       CLEAR     46  20  35 W9        30.05R
LEXINGTON      CLEAR     42  31  66 W3        30.01R
MCCOOK         CLEAR     47  24  40 NW12      30.02R
OGALLALA       CLEAR     39  23  52 W3        30.05R
$$

NEZ005>010-023>029-035>040-094-220300-
NORTH CENTRAL NEBRASKA

CITY           SKY/WX    TMP DP  RH WIND       PRES   REMARKS
VALENTINE      CLEAR     41  29  62 NW6       29.98R
AINSWORTH      CLEAR     41  32  70 W6        29.98R
BROKEN BOW     CLEAR     40  30  67 NW7       29.99R
O`NEILL        CLEAR     43  33  68 W7        29.96R
ORD            CLEAR     41  34  76 CALM      29.97R
THEDFORD       CLEAR     44  26  50 W7        29.99S
$$

NEZ041-046>049-061>064-073>077-083>087-220300-
SOUTH CENTRAL NEBRASKA

CITY           SKY/WX    TMP DP  RH WIND       PRES   REMARKS
GRAND ISLAND   CLEAR     43  39  86 CALM      29.99R
AURORA         CLOUDY    43  38  82 CALM      29.98F
HASTINGS       CLEAR     44  37  76 CALM      29.99S
HEBRON         MOCLDY    52  40  64 NW6       29.96F
HOLDREGE       CLEAR     43  35  73 CALM      30.01R
KEARNEY        CLEAR     43  35  73 S3        30.00R
YORK           CLOUDY    46  39  76 NW8       29.96F
$$

NEZ011>018-030>034-042>045-220300-
NORTHEAST NEBRASKA

CITY           SKY/WX    TMP DP  RH WIND       PRES   REMARKS
NORFOLK        CLEAR     40  36  86 SW8       29.96R WCI  34
ALBION         CLEAR     40  36  86 CALM      29.97R
BLAIR          CLOUDY    53  41  64 NW9       29.94R
COLUMBUS       CLEAR     44  37  76 NW3       29.96R
FREMONT        CLOUDY    47  39  73 NW5       29.96R
TEKAMAH        PTCLDY    52  38  58 NW7       29.94R
WAYNE          CLEAR     45  37  76 W3        29.94R
$$

NEZ050>053-065>068-078-088>093-220300-
SOUTHEAST NEBRASKA

CITY           SKY/WX    TMP DP  RH WIND       PRES   REMARKS
LINCOLN        PTCLDY    53  39  59 NW6       29.98R
OMAHA EPPLEY   CLOUDY    55  41  59 NW15      29.92R
BEATRICE       MOCLDY    52  41  65 NW9       29.96F
FALLS CITY     CLOUDY    57  45  64 NW9       29.93R
NEBRASKA CITY  CLOUDY    56  43  62 NW10G16   29.93S
PLATTSMOUTH    CLOUDY    55  43  63 NW12      29.93R
$$

NEZ044-045-051>053-067-220300-
OMAHA AREA

CITY           SKY/WX    TMP DP  RH WIND       PRES   REMARKS
OMAHA EPPLEY   CLOUDY    55  41  59 NW15      29.92R
BLAIR          CLOUDY    53  41  64 NW9       29.94R
FREMONT        CLOUDY    47  39  73 NW5       29.96R
MILLARD        CLOUDY    56  42  59 NW12      29.94R
OFFUTT AFB     CLOUDY    55  40  57 NW13      29.93R
PLATTSMOUTH    CLOUDY    55  43  63 NW12      29.93R
WAHOO          FAIR      51  39  63 NW6       29.95S
$$




USA.gov is the U.S. government's official web portal to all federal, state and local government web resources and services.